Location: Asheville, NC
(35.6000°N, 82.5500°W)
Time: 09:22:19
(UTC-05:00)

Vanguard 3 - Pass Details

Date: 09 December 2017
Orbit: 508 x 3264 km, 33.4° (Epoch: 20 January)

Event Time Altitude Azimuth Distance (km) Brightness Sun altitude
Rises 14:18:50 0° 245° (WSW) 2,698 10.7 25.4°
Reaches altitude 10° 14:21:08 10° 239° (WSW) 1,725 10.0 25.1°
Maximum altitude 14:24:38 43° 165° (SSE) 718 7.8 24.8°
Drops below altitude 10° 14:28:28 10° 93° (E) 1,890 8.9 24.4°
Sets 14:31:06 0° 86° (E) 3,000 9.8 24.1°
